Weather History for KFNL - May, 2012

Change the Weather History Date:

Sunday, May 6, 2012

  Actual Average Record
Temperature  
Mean Temperature 52 °F -  
Max Temperature 60 °F 65 °F 87 °F (2002)
Min Temperature 44 °F 38 °F 35 °F (1999)
Degree Days  
Heating Degree Days 13    
Growing Degree Days 2 (Base 50)    
Moisture  
Dew Point 26 °F    
Average Humidity 42    
Maximum Humidity 81    
Minimum Humidity 18    
Precipitation  
Precipitation 0.17 in - - ()
Sea Level Pressure  
Sea Level Pressure 30.21 in    
Wind  
Wind Speed 13 mph (NNW)    
Max Wind Speed 24 mph    
Max Gust Speed 29 mph    
Visibility 10 miles    
Events      
Averages and records for this station are not official NWS values.
T = Trace of Precipitation, MM = Missing Value Source: NWS Daily Summary

Daily Weather History Graph

Daily Weather History Graph

Search for Another Location

Airport or City:

Trip Planner

Search our weather history database for the weather conditions in past years. The results will help you decide how hot, cold, wet, or windy it might be!

Date:

Astronomy

May. 06, 2012 Rise Set
Actual Time 5:52 AM MDT 8:01 PM MDT
Civil Twilight 5:22 AM MDT 8:31 PM MDT
Nautical Twilight 4:45 AM MDT 9:08 PM MDT
Astronomical Twilight 4:05 AM MDT 9:49 PM MDT
Moon 9:09 PM MDT (5/6) 6:04 AM MDT (5/6)
Length of Visible Light 15h 09m
Length of Day
14h 08m
Waxing Gibbous, 99% of the Moon is Illuminated
May 6
Waxing Gibbous
May 12
Last Quarter
May 20
New
May 28
First Quarter
Jun 4
Full

Hourly Weather History & Observations

Time (MDT) Temp. Windchill Dew Point Humidity Pressure Visibility Wind Dir Wind Speed Gust Speed Precip Events Conditions
12:15 AM 55.4 °F - 24.8 °F 31% 30.11 in 10.0 mi North 24.2 mph - N/A   Partly Cloudy
12:35 AM 55.4 °F - 15.8 °F 21% 30.12 in 10.0 mi North 21.9 mph 28.8 mph N/A   Partly Cloudy
12:55 AM 53.6 °F - 12.2 °F 19% 30.14 in 10.0 mi North 13.8 mph 26.5 mph N/A   Clear
1:15 AM 53.6 °F - 10.4 °F 18% 30.13 in 10.0 mi NNW 17.3 mph - N/A   Clear
1:35 AM 51.8 °F - 10.4 °F 19% 30.13 in 10.0 mi NNW 17.3 mph - N/A   Clear
1:55 AM 51.8 °F - 8.6 °F 18% 30.13 in 10.0 mi NNW 17.3 mph 23.0 mph N/A   Clear
2:15 AM 51.8 °F - 8.6 °F 18% 30.13 in 10.0 mi NNW 16.1 mph - N/A   Clear
2:35 AM 51.8 °F - 10.4 °F 19% 30.13 in 10.0 mi NNW 17.3 mph - N/A   Clear
2:55 AM 51.8 °F - 10.4 °F 19% 30.13 in 10.0 mi NNW 16.1 mph 23.0 mph N/A   Clear
3:15 AM 50.0 °F - 10.4 °F 20% 30.13 in 10.0 mi NNW 16.1 mph - N/A   Clear
3:35 AM 50.0 °F - 12.2 °F 22% 30.13 in 10.0 mi North 19.6 mph - N/A   Clear
3:55 AM 48.2 °F - 15.8 °F 27% 30.14 in 10.0 mi North 17.3 mph - N/A   Clear
4:15 AM 48.2 °F - 17.6 °F 30% 30.15 in 10.0 mi North 18.4 mph 23.0 mph N/A   Clear
4:35 AM 46.4 °F 40.1 °F 19.4 °F 34% 30.15 in 10.0 mi North 15.0 mph - N/A   Clear
4:55 AM 46.4 °F 39.5 °F 19.4 °F 34% 30.16 in 10.0 mi North 17.3 mph - N/A   Clear
5:15 AM 46.4 °F 40.1 °F 21.2 °F 37% 30.17 in 10.0 mi North 15.0 mph - N/A   Clear
5:35 AM 46.4 °F 39.8 °F 21.2 °F 37% 30.17 in 10.0 mi North 16.1 mph - N/A   Clear
6:15 AM 44.6 °F 39.2 °F 21.2 °F 39% 30.20 in 10.0 mi North 10.4 mph - N/A   Clear
6:35 AM 46.4 °F 40.1 °F 21.2 °F 37% 30.20 in 10.0 mi NNW 15.0 mph - N/A   Clear
6:55 AM 46.4 °F 40.7 °F 21.2 °F 37% 30.21 in 10.0 mi NW 12.7 mph 18.4 mph N/A   Clear
7:15 AM 48.2 °F - 21.2 °F 34% 30.21 in 10.0 mi NW 15.0 mph - N/A   Clear
7:35 AM 50.0 °F - 19.4 °F 30% 30.22 in 10.0 mi NNW 15.0 mph - N/A   Clear
7:55 AM 51.8 °F - 19.4 °F 28% 30.23 in 10.0 mi NNW 10.4 mph - N/A   Clear
8:15 AM 51.8 °F - 17.6 °F 26% 30.24 in 10.0 mi North 12.7 mph - N/A   Clear
8:35 AM 51.8 °F - 19.4 °F 28% 30.24 in 10.0 mi NNW 10.4 mph - N/A   Partly Cloudy
8:55 AM 51.8 °F - 19.4 °F 28% 30.24 in 10.0 mi North 8.1 mph - N/A   Partly Cloudy
9:15 AM 53.6 °F - 21.2 °F 28% 30.24 in 10.0 mi West 3.5 mph - N/A   Clear
9:35 AM 51.8 °F - 21.2 °F 30% 30.24 in 10.0 mi WNW 3.5 mph - N/A   Clear
9:55 AM 53.6 °F - 24.8 °F 33% 30.25 in 10.0 mi NE 6.9 mph - N/A   Clear
10:15 AM 55.4 °F - 26.6 °F 33% 30.25 in 10.0 mi Calm Calm - N/A   Clear
10:35 AM 55.4 °F - 24.8 °F 31% 30.25 in 10.0 mi East 4.6 mph - N/A   Clear
10:55 AM 57.2 °F - 26.6 °F 31% 30.25 in 10.0 mi SE 12.7 mph 18.4 mph N/A   Partly Cloudy
11:15 AM 57.2 °F - 24.8 °F 29% 30.25 in 10.0 mi SE 9.2 mph - N/A   Partly Cloudy
11:35 AM 57.2 °F - 24.8 °F 29% 30.24 in 10.0 mi South 4.6 mph - N/A   Clear
11:55 AM 57.2 °F - 24.8 °F 29% 30.23 in 10.0 mi East 12.7 mph - N/A   Clear
12:35 PM 60.8 °F - 24.8 °F 25% 30.21 in 10.0 mi ENE 13.8 mph 18.4 mph N/A   Clear
12:55 PM 60.8 °F - 24.8 °F 25% 30.21 in 10.0 mi ESE 13.8 mph 17.3 mph N/A   Clear
1:15 PM 60.8 °F - 26.6 °F 27% 30.21 in 10.0 mi East 11.5 mph - N/A   Clear
1:55 PM 59.0 °F - 24.8 °F 27% 30.20 in 10.0 mi SE 6.9 mph - N/A   Clear
2:15 PM 59.0 °F - 26.6 °F 29% 30.20 in 10.0 mi SE 5.8 mph - N/A   Clear
2:35 PM 59.0 °F - 26.6 °F 29% 30.19 in 10.0 mi SE 8.1 mph - N/A   Partly Cloudy
2:55 PM 57.2 °F - 26.6 °F 31% 30.19 in 10.0 mi SSE 5.8 mph - N/A   Mostly Cloudy
3:15 PM 60.8 °F - 28.4 °F 29% 30.18 in 10.0 mi SE 6.9 mph - N/A   Mostly Cloudy
3:35 PM 57.2 °F - 28.4 °F 33% 30.18 in 10.0 mi SSE 8.1 mph 16.1 mph N/A   Mostly Cloudy
3:55 PM 57.2 °F - 28.4 °F 33% 30.18 in 10.0 mi SE 6.9 mph - N/A   Overcast
4:15 PM 55.4 °F - 28.4 °F 36% 30.18 in 10.0 mi South 6.9 mph - N/A   Overcast
4:35 PM 55.4 °F - 30.2 °F 38% 30.18 in 10.0 mi SSW 8.1 mph - N/A   Overcast
4:55 PM 53.6 °F - 30.2 °F 41% 30.18 in 10.0 mi SE 4.6 mph - N/A   Overcast
5:15 PM 53.6 °F - 30.2 °F 41% 30.19 in 10.0 mi WSW 6.9 mph - N/A   Overcast
5:35 PM 51.8 °F - 35.6 °F 54% 30.19 in 10.0 mi SSW 6.9 mph - N/A   Overcast
5:55 PM 51.8 °F - 35.6 °F 54% 30.20 in 10.0 mi WNW 10.4 mph - N/A   Overcast
6:15 PM 48.2 °F - 37.4 °F 66% 30.21 in 10.0 mi NW 9.2 mph - N/A   Overcast
6:35 PM 48.2 °F - 37.4 °F 66% 30.22 in 10.0 mi NNW 5.8 mph - 0.01 in   Overcast
6:55 PM 48.2 °F - 39.2 °F 71% 30.24 in 10.0 mi West 9.2 mph - 0.02 in   Overcast
7:15 PM 46.4 °F 42.9 °F 39.2 °F 76% 30.25 in 10.0 mi WNW 6.9 mph - 0.01 in   Overcast
7:35 PM 46.4 °F 45.2 °F 41.0 °F 81% 30.25 in 10.0 mi WNW 3.5 mph - 0.05 in   Overcast
7:55 PM 46.4 °F - 39.2 °F 76% 30.26 in 10.0 mi Calm Calm - 0.08 in   Overcast
8:15 PM 46.4 °F 43.5 °F 41.0 °F 81% 30.27 in 10.0 mi WNW 5.8 mph - 0.01 in   Overcast
8:35 PM 44.6 °F 42.2 °F 39.2 °F 81% 30.27 in 10.0 mi NW 4.6 mph - 0.03 in   Overcast
8:55 PM 44.6 °F 42.2 °F 39.2 °F 81% 30.29 in 10.0 mi NW 4.6 mph - 0.05 in   Overcast
9:15 PM 44.6 °F 42.2 °F 39.2 °F 81% 30.29 in 10.0 mi NW 4.6 mph - 0.01 in   Overcast
9:35 PM 44.6 °F 41.4 °F 39.2 °F 81% 30.29 in 10.0 mi WNW 5.8 mph - 0.02 in   Overcast
9:55 PM 44.6 °F 40.2 °F 39.2 °F 81% 30.30 in 10.0 mi WNW 8.1 mph - 0.02 in   Overcast
10:35 PM 44.6 °F 41.4 °F 39.2 °F 81% 30.30 in 10.0 mi NW 5.8 mph - N/A   Overcast
10:55 PM 44.6 °F 41.4 °F 39.2 °F 81% 30.29 in 10.0 mi NNW 5.8 mph - N/A   Overcast
11:15 PM 44.6 °F 40.7 °F 39.2 °F 81% 30.29 in 10.0 mi NW 6.9 mph - N/A   Overcast
11:35 PM 44.6 °F 42.2 °F 39.2 °F 81% 30.29 in 10.0 mi NW 4.6 mph - N/A   Overcast